Location: Coffee Ditch
(40.9640°N, 122.7500°W)
Time: 01:01:15
(UTC+00:00)

Cosmos 1602 Rocket - Pass Details

Date: 20 December 2025
Orbit: 596 x 626 km, 82.5° (Epoch: 16 January)

Event Time Altitude Azimuth Distance (km) Brightness Sun altitude
Rises 01:15:22 0° 338° (NNW) 2,874 6.9 -5.8°
Reaches altitude 10° 01:17:55 10° 325° (NW) 1,960 6.3 -6.3°
Maximum altitude 01:21:23 24° 272° (W) 1,265 6.1 -6.8°
Drops below altitude 10° 01:24:49 10° 218° (SW) 1,935 7.2 -7.4°
Sets 01:27:19 0° 204° (SSW) 2,829 7.8 -7.9°
